| time (UTC) | temp F | wind direction | speed MPH | gust MPH | rain 1hr in | rain 24hr in | rain mn in | humidity % | barometer mb |
| 20260502221522 | 48 | 204 | 11.0 | 18.0 | 0.00 | 0.00 | 0.00 | 76 | 1015.8 |
| 20260502220021 | 48 | 213 | 7.0 | 19.0 | 0.00 | 0.00 | 0.00 | 77 | 1016.0 |
| 20260502214520 | 48 | 201 | 11.0 | 18.0 | 0.00 | 0.00 | 0.00 | 75 | 1016.1 |
| 20260502213019 | 48 | 220 | 9.0 | 17.0 | 0.00 | 0.00 | 0.00 | 74 | 1016.1 |
| 20260502211518 | 48 | 213 | 8.0 | 18.0 | 0.00 | 0.00 | 0.00 | 75 | 1016.2 |
| 20260502210014 | 48 | 182 | 9.0 | 17.0 | 0.00 | 0.00 | 0.00 | 76 | 1016.3 |
| 20260502204514 | 47 | 235 | 10.0 | 17.0 | 0.00 | 0.00 | 0.00 | 75 | 1016.5 |
| 20260502203014 | 47 | 259 | 9.0 | 16.0 | 0.00 | 0.00 | 0.00 | 72 | 1016.6 |
| 20260502201511 | 47 | 214 | 8.0 | 16.0 | 0.00 | 0.00 | 0.00 | 73 | 1016.9 |
| 20260502200013 | 47 | 210 | 10.0 | 17.0 | 0.00 | 0.00 | 0.00 | 71 | 1017.1 |
| 20260502194512 | 47 | 194 | 6.0 | 15.0 | 0.00 | 0.00 | 0.00 | 71 | 1017.2 |
| 20260502193006 | 48 | 202 | 7.0 | 17.0 | 0.00 | 0.00 | 0.00 | 68 | 1017.4 |
| 20260502191504 | 47 | 208 | 7.0 | 16.0 | 0.00 | 0.00 | 0.00 | 70 | 1017.6 |
| 20260502190002 | 47 | 225 | 5.0 | 13.0 | 0.00 | 0.00 | 0.00 | 69 | 1017.8 |
| 20260502184600 | 47 | 227 | 7.0 | 15.0 | 0.00 | 0.00 | 0.00 | 69 | 1018.1 |
| 20260502183108 | 47 | 194 | 6.0 | 11.0 | 0.00 | 0.00 | 0.00 | 72 | 1018.2 |
| 20260502181558 | 47 | 171 | 4.0 | 11.0 | 0.00 | 0.00 | 0.00 | 70 | 1018.3 |
| 20260502163106 | 48 | 181 | 7.0 | 9.0 | 0.00 | 0.00 | 0.00 | 55 | 1018.9 |
| 20260502161609 | 49 | 81 | 3.0 | 10.0 | 0.00 | 0.00 | 0.00 | 49 | 1019.0 |
| 20260502151545 | 48 | 343 | 1.0 | 8.0 | 0.00 | 0.00 | 0.00 | 52 | 1019.2 |
| 20260502123012 | 40 | 14 | 0.0 | 6.0 | 0.00 | 0.00 | 0.00 | 80 | 1019.4 |
| 20260502121508 | 39 | 9 | 0.0 | 6.0 | 0.00 | 0.00 | 0.00 | 81 | 1019.5 |
| 20260502114502 | 37 | 9 | 0.0 | 3.0 | 0.00 | 0.00 | 0.00 | 86 | 1019.2 |
| 20260502113131 | 36 | 348 | 0.0 | 5.0 | 0.00 | 0.00 | 0.00 | 87 | 1019.1 |
| 20260502111555 | 35 | 10 | 0.0 | 3.0 | 0.00 | 0.00 | 0.00 | 90 | 1018.9 |
| 20260502110055 | 34 | 339 | 0.0 | 3.0 | 0.00 | 0.00 | 0.00 | 90 | 1018.8 |
| 20260502104553 | 33 | 329 | 0.0 | 3.0 | 0.00 | 0.00 | 0.00 | 91 | 1018.8 |
| 20260502103053 | 33 | 313 | 0.0 | 2.0 | 0.00 | 0.00 | 0.00 | 91 | 1018.8 |
| 20260502101553 | 33 | 313 | 0.0 | 1.0 | 0.00 | 0.00 | 0.00 | 91 | 1018.8 |
| 20260502070040 | 34 | 311 | 0.0 | 1.0 | 0.00 | 0.00 | 0.00 | 87 | 1018.9 |
| 20260502064545 | 34 | 311 | 0.0 | 1.0 | 0.00 | 0.01 | 0.00 | 87 | 1019.1 |
| 20260502063035 | 34 | 311 | 0.0 | 2.0 | 0.00 | 0.01 | 0.00 | 87 | 1019.2 |
| 20260502061532 | 34 | 311 | 0.0 | 2.0 | 0.00 | 0.01 | 0.00 | 86 | 1019.2 |
| 20260502060033 | 34 | 311 | 0.0 | 2.0 | 0.00 | 0.01 | 0.00 | 85 | 1019.3 |
| 20260502054535 | 34 | 311 | 0.0 | 2.0 | 0.00 | 0.01 | 0.00 | 85 | 1019.4 |
| 20260502053032 | 34 | 311 | 1.0 | 3.0 | 0.00 | 0.01 | 0.00 | 86 | 1019.4 |
| 20260502051535 | 34 | 322 | 2.0 | 4.0 | 0.00 | 0.01 | 0.00 | 85 | 1019.3 |
| 20260502050041 | 34 | 338 | 2.0 | 3.0 | 0.00 | 0.01 | 0.00 | 85 | 1019.2 |
| 20260502044525 | 34 | 355 | 2.0 | 4.0 | 0.00 | 0.05 | 0.01 | 84 | 1019.2 |
| 20260502043029 | 35 | 5 | 2.0 | 4.0 | 0.00 | 0.05 | 0.01 | 82 | 1019.0 |
| 20260502041523 | 35 | 17 | 1.0 | 3.0 | 0.00 | 0.05 | 0.01 | 81 | 1019.0 |
| 20260502040021 | 35 | 19 | 2.0 | 4.0 | 0.00 | 0.05 | 0.01 | 82 | 1018.9 |
| 20260502034519 | 36 | 36 | 2.0 | 3.0 | 0.00 | 0.06 | 0.01 | 79 | 1018.9 |
| 20260502033019 | 36 | 37 | 2.0 | 3.0 | 0.00 | 0.06 | 0.01 | 78 | 1018.8 |
| 20260502031516 | 37 | 65 | 1.0 | 3.0 | 0.00 | 0.06 | 0.01 | 76 | 1018.8 |
| 20260502030014 | 37 | 87 | 1.0 | 3.0 | 0.00 | 0.06 | 0.01 | 74 | 1018.8 |
| 20260502024514 | 39 | 104 | 1.0 | 2.0 | 0.00 | 0.06 | 0.01 | 71 | 1018.7 |
| 20260502023010 | 40 | 104 | 0.0 | 2.0 | 0.00 | 0.06 | 0.01 | 68 | 1018.6 |
| 20260502021507 | 41 | 86 | 1.0 | 3.0 | 0.00 | 0.06 | 0.01 | 64 | 1018.6 |
| 20260502020006 | 41 | 115 | 1.0 | 5.0 | 0.00 | 0.06 | 0.01 | 62 | 1018.5 |
| 20260502014506 | 41 | 115 | 2.0 | 5.0 | 0.00 | 0.06 | 0.01 | 61 | 1018.3 |
| 20260502013006 | 41 | 92 | 3.0 | 5.0 | 0.00 | 0.06 | 0.01 | 64 | 1018.3 |
| 20260502011502 | 41 | 97 | 4.0 | 7.0 | 0.00 | 0.06 | 0.01 | 64 | 1018.2 |
| 20260502010006 | 41 | 101 | 4.0 | 7.0 | 0.00 | 0.06 | 0.01 | 62 | 1018.2 |
| 20260502004603 | 41 | 123 | 3.0 | 7.0 | 0.00 | 0.06 | 0.01 | 65 | 1018.1 |
| 20260502003058 | 41 | 114 | 4.0 | 7.0 | 0.00 | 0.06 | 0.01 | 64 | 1018.2 |
| 20260502001558 | 41 | 99 | 2.0 | 5.0 | 0.00 | 0.06 | 0.01 | 68 | 1018.2 |
| 20260502000100 | 41 | 111 | 5.0 | 8.0 | 0.00 | 0.06 | 0.01 | 68 | 1018.1 |
| 20260501234558 | 41 | 107 | 5.0 | 9.0 | 0.00 | 0.06 | 0.01 | 72 | 1018.0 |
| 20260501233055 | 41 | 96 | 2.0 | 7.0 | 0.00 | 0.06 | 0.01 | 72 | 1017.9 |
| 20260501231556 | 41 | 135 | 5.0 | 8.0 | 0.00 | 0.06 | 0.01 | 71 | 1017.9 |
| 20260501224550 | 41 | 96 | 5.0 | 8.0 | 0.00 | 0.06 | 0.01 | 74 | 1017.9 |
| 20260501223050 | 41 | 96 | 5.0 | 8.0 | 0.00 | 0.06 | 0.01 | 76 | 1017.8 |